Time,TemperatureF,DewpointF,PressureIn,WindDirection,WindDirectionDegrees,WindSpeedMPH,WindSpeedGustMPH,Humidity,HourlyPrecipIn,Conditions,Clouds,dailyrainin,SolarRadiationWatts/m^2,SoftwareType,DateUTC
2013-05-05 00:01:00,55.5,49.4,30.10,East,89,2.0,14.0,80,0.00,,---,0.00,0.00,VWS V14.01,2013-05-05 04:01:00,
2013-05-05 00:06:00,55.4,49.7,30.10,ENE,66,1.0,4.0,81,0.00,,---,0.00,0.00,VWS V14.01,2013-05-05 04:06:00,
2013-05-05 00:11:00,55.3,49.6,30.10,NE,56,6.0,7.0,81,0.00,,---,0.00,0.00,VWS V14.01,2013-05-05 04:11:00,
2013-05-05 00:16:00,55.2,49.5,30.10,East,101,4.0,7.0,81,0.00,,---,0.00,0.00,VWS V14.01,2013-05-05 04:16:00,
2013-05-05 00:21:00,55.1,49.4,30.10,NE,36,7.0,8.0,81,0.00,,---,0.00,0.00,VWS V14.01,2013-05-05 04:21:00,
2013-05-05 00:26:00,55.0,49.3,30.10,ENE,59,3.0,9.0,81,0.00,,---,0.00,0.00,VWS V14.01,2013-05-05 04:26:00,
2013-05-05 00:31:00,55.0,49.3,30.10,East,86,2.0,2.0,81,0.00,,---,0.00,0.00,VWS V14.01,2013-05-05 04:31:00,
2013-05-05 00:36:00,54.9,49.5,30.11,ENE,76,0.0,2.0,82,0.00,,---,0.00,0.00,VWS V14.01,2013-05-05 04:36:00,
2013-05-05 00:41:00,54.9,49.5,30.11,North,355,2.0,5.0,82,0.00,,---,0.00,0.00,VWS V14.01,2013-05-05 04:41:00,
2013-05-05 00:46:00,54.9,49.5,30.11,East,98,1.0,5.0,82,0.00,,---,0.00,0.00,VWS V14.01,2013-05-05 04:46:00,
2013-05-05 00:51:00,54.8,49.4,30.10,SE,140,0.0,5.0,82,0.00,,---,0.00,0.00,VWS V14.01,2013-05-05 04:51:00,
2013-05-05 00:56:00,54.7,49.3,30.10,ENE,62,1.0,8.0,82,0.00,,---,0.00,0.00,VWS V14.01,2013-05-05 04:56:00,
2013-05-05 01:01:00,54.6,49.2,30.10,NE,37,1.0,8.0,82,0.00,,---,0.00,0.00,VWS V14.01,2013-05-05 05:01:00,
2013-05-05 01:06:00,54.6,49.2,30.09,ESE,105,0.0,5.0,82,0.00,,---,0.00,0.00,VWS V14.01,2013-05-05 05:06:00,
2013-05-05 01:11:00,54.4,49.0,30.10,East,89,0.0,6.0,82,0.00,,---,0.00,0.00,VWS V14.01,2013-05-05 05:11:00,
2013-05-05 01:16:00,54.4,49.0,30.10,ESE,116,2.0,6.0,82,0.00,,---,0.00,0.00,VWS V14.01,2013-05-05 05:16:00,
2013-05-05 01:21:00,54.3,48.9,30.10,ENE,70,2.0,9.0,82,0.00,,---,0.00,0.00,VWS V14.01,2013-05-05 05:21:00,
2013-05-05 01:26:00,54.2,48.8,30.10,ENE,60,0.0,9.0,82,0.00,,---,0.00,0.00,VWS V14.01,2013-05-05 05:26:00,
2013-05-05 01:31:00,54.2,49.2,30.09,ESE,105,1.0,9.0,83,0.00,,---,0.00,0.00,VWS V14.01,2013-05-05 05:31:00,
2013-05-05 01:36:00,54.1,49.1,30.09,East,93,0.0,5.0,83,0.00,,---,0.00,0.00,VWS V14.01,2013-05-05 05:36:00,
2013-05-05 01:41:00,54.0,49.0,30.09,East,90,1.0,8.0,83,0.00,,---,0.00,0.00,VWS V14.01,2013-05-05 05:41:00,
2013-05-05 01:46:00,53.9,48.9,30.09,North,5,0.0,8.0,83,0.00,,---,0.00,0.00,VWS V14.01,2013-05-05 05:46:00,
2013-05-05 01:51:00,53.8,48.8,30.09,East,88,5.0,8.0,83,0.00,,---,0.00,0.00,VWS V14.01,2013-05-05 05:51:00,
2013-05-05 01:56:00,53.7,48.7,30.09,NNW,348,5.0,8.0,83,0.00,,---,0.00,0.00,VWS V14.01,2013-05-05 05:56:00,
2013-05-05 02:01:00,53.6,48.6,30.08,NNW,339,0.0,8.0,83,0.00,,---,0.00,0.00,VWS V14.01,2013-05-05 06:01:00,
2013-05-05 02:06:00,53.5,48.5,30.08,West,275,1.0,7.0,83,0.00,,---,0.00,0.00,VWS V14.01,2013-05-05 06:06:00,
2013-05-05 02:11:00,53.4,48.4,30.08,East,82,1.0,9.0,83,0.00,,---,0.00,0.00,VWS V14.01,2013-05-05 06:11:00,
2013-05-05 02:16:00,53.3,48.3,30.08,East,81,0.0,9.0,83,0.00,,---,0.00,0.00,VWS V14.01,2013-05-05 06:16:00,
2013-05-05 02:21:00,53.2,48.2,30.08,ENE,57,0.0,9.0,83,0.00,,---,0.00,0.00,VWS V14.01,2013-05-05 06:21:00,
2013-05-05 02:26:00,53.2,48.5,30.08,East,96,4.0,9.0,84,0.00,,---,0.00,0.00,VWS V14.01,2013-05-05 06:26:00,
2013-05-05 02:31:00,53.1,48.4,30.08,ENE,74,1.0,9.0,84,0.00,,---,0.00,0.00,VWS V14.01,2013-05-05 06:31:00,
2013-05-05 02:36:00,53.0,48.3,30.08,East,81,1.0,4.0,84,0.00,,---,0.00,0.00,VWS V14.01,2013-05-05 06:36:00,
2013-05-05 02:41:00,52.9,48.2,30.08,East,84,2.0,4.0,84,0.00,,---,0.00,0.00,VWS V14.01,2013-05-05 06:41:00,
2013-05-05 02:46:00,52.8,48.4,30.07,North,5,1.0,7.0,85,0.00,,---,0.00,0.00,VWS V14.01,2013-05-05 06:46:00,
2013-05-05 02:51:00,52.7,48.3,30.07,ENE,62,4.0,8.0,85,0.00,,---,0.00,0.00,VWS V14.01,2013-05-05 06:51:00,
2013-05-05 02:56:00,52.6,48.2,30.07,ENE,73,1.0,8.0,85,0.00,,---,0.00,0.00,VWS V14.01,2013-05-05 06:56:00,
2013-05-05 03:01:00,52.6,48.2,30.07,North,11,2.0,8.0,85,0.00,,---,0.00,0.00,VWS V14.01,2013-05-05 07:01:00,
2013-05-05 03:06:00,52.5,48.1,30.07,SE,130,0.0,11.0,85,0.00,,---,0.00,0.00,VWS V14.01,2013-05-05 07:06:00,
2013-05-05 03:11:00,52.3,47.9,30.06,ESE,113,0.0,11.0,85,0.00,,---,0.00,0.00,VWS V14.01,2013-05-05 07:11:00,
2013-05-05 03:16:00,52.3,47.9,30.07,NE,34,1.0,11.0,85,0.00,,---,0.00,0.00,VWS V14.01,2013-05-05 07:16:00,
2013-05-05 03:21:00,52.2,47.8,30.07,NE,54,2.0,11.0,85,0.00,,---,0.00,0.00,VWS V14.01,2013-05-05 07:21:00,
2013-05-05 03:26:00,52.1,47.7,30.07,NE,43,0.0,11.0,85,0.00,,---,0.00,0.00,VWS V14.01,2013-05-05 07:26:00,
2013-05-05 03:31:00,52.1,47.7,30.07,North,355,0.0,11.0,85,0.00,,---,0.00,0.00,VWS V14.01,2013-05-05 07:31:00,
2013-05-05 03:36:00,51.9,47.8,30.07,East,86,0.0,6.0,86,0.00,,---,0.00,0.00,VWS V14.01,2013-05-05 07:36:00,
2013-05-05 03:41:00,51.8,47.8,30.07,ENE,61,0.0,6.0,86,0.00,,---,0.00,0.00,VWS V14.01,2013-05-05 07:41:00,
2013-05-05 03:46:00,51.7,47.7,30.06,NE,45,1.0,6.0,86,0.00,,---,0.00,0.00,VWS V14.01,2013-05-05 07:46:00,
2013-05-05 03:51:00,51.6,47.6,30.06,NNE,18,2.0,6.0,86,0.00,,---,0.00,0.00,VWS V14.01,2013-05-05 07:51:00,
2013-05-05 03:56:00,51.5,47.5,30.06,ENE,61,2.0,6.0,86,0.00,,---,0.00,0.00,VWS V14.01,2013-05-05 07:56:00,
2013-05-05 04:01:00,51.4,47.4,30.06,NE,47,0.0,6.0,86,0.00,,---,0.00,0.00,VWS V14.01,2013-05-05 08:01:00,
2013-05-05 04:06:00,51.3,47.3,30.06,ENE,64,0.0,8.0,86,0.00,,---,0.00,0.00,VWS V14.01,2013-05-05 08:06:00,
2013-05-05 04:11:00,51.2,47.2,30.06,East,101,0.0,8.0,86,0.00,,---,0.00,0.00,VWS V14.01,2013-05-05 08:11:00,
2013-05-05 04:16:00,51.1,47.1,30.06,East,80,5.0,8.0,86,0.00,,---,0.00,0.00,VWS V14.01,2013-05-05 08:16:00,
2013-05-05 04:21:00,51.0,47.0,30.06,East,100,4.0,8.0,86,0.00,,---,0.00,0.00,VWS V14.01,2013-05-05 08:21:00,
2013-05-05 04:26:00,50.8,47.1,30.06,ESE,120,3.0,8.0,87,0.00,,---,0.00,0.00,VWS V14.01,2013-05-05 08:26:00,
2013-05-05 04:31:00,50.8,47.1,30.06,ENE,72,3.0,8.0,87,0.00,,---,0.00,0.00,VWS V14.01,2013-05-05 08:31:00,
2013-05-05 04:36:00,50.7,47.0,30.06,ENE,75,1.0,6.0,87,0.00,,---,0.00,0.00,VWS V14.01,2013-05-05 08:36:00,
2013-05-05 04:41:00,50.7,47.0,30.06,ESE,109,0.0,6.0,87,0.00,,---,0.00,0.00,VWS V14.01,2013-05-05 08:41:00,
2013-05-05 04:46:00,50.6,46.9,30.06,ENE,75,0.0,8.0,87,0.00,,---,0.00,0.00,VWS V14.01,2013-05-05 08:46:00,
2013-05-05 04:51:00,50.6,46.9,30.06,North,349,4.0,8.0,87,0.00,,---,0.00,0.00,VWS V14.01,2013-05-05 08:51:00,
2013-05-05 04:56:00,50.5,46.8,30.06,ENE,70,4.0,8.0,87,0.00,,---,0.00,0.00,VWS V14.01,2013-05-05 08:56:00,
2013-05-05 05:01:00,50.5,46.8,30.06,East,89,3.0,8.0,87,0.00,,---,0.00,0.00,VWS V14.01,2013-05-05 09:01:00,
2013-05-05 05:06:00,50.5,46.8,30.06,East,90,0.0,4.0,87,0.00,,---,0.00,0.00,VWS V14.01,2013-05-05 09:06:00,
2013-05-05 05:11:00,50.5,46.8,30.06,East,98,0.0,7.0,87,0.00,,---,0.00,0.00,VWS V14.01,2013-05-05 09:11:00,
2013-05-05 05:16:00,50.4,46.7,30.06,NE,50,1.0,7.0,87,0.00,,---,0.00,0.00,VWS V14.01,2013-05-05 09:16:00,
2013-05-05 05:21:00,50.4,46.7,30.06,ESE,104,0.0,7.0,87,0.00,,---,0.00,0.00,VWS V14.01,2013-05-05 09:21:00,
2013-05-05 05:26:00,50.4,46.7,30.06,NE,55,0.0,7.0,87,0.00,,---,0.00,0.00,VWS V14.01,2013-05-05 09:26:00,
2013-05-05 05:31:00,50.5,46.8,30.06,ENE,74,0.0,8.0,87,0.00,,---,0.00,0.00,VWS V14.01,2013-05-05 09:31:00,
2013-05-05 05:36:00,50.4,46.7,30.06,NNW,348,1.0,2.0,87,0.00,,---,0.00,0.00,VWS V14.01,2013-05-05 09:36:00,
2013-05-05 05:40:00,50.4,46.7,30.07,NNE,25,5.0,5.0,87,0.00,,---,0.00,0.00,VWS V14.01,2013-05-05 09:40:00,
2013-05-05 05:45:00,50.3,46.6,30.06,NE,38,0.0,7.0,87,0.00,,---,0.00,0.00,VWS V14.01,2013-05-05 09:45:00,
2013-05-05 05:50:00,50.3,46.9,30.06,East,81,0.0,8.0,88,0.00,,---,0.00,0.00,VWS V14.01,2013-05-05 09:50:00,
2013-05-05 05:55:00,50.3,46.9,30.06,SE,132,0.0,8.0,88,0.00,,---,0.00,0.00,VWS V14.01,2013-05-05 09:55:00,
2013-05-05 06:00:00,50.2,46.8,30.06,NE,46,3.0,11.0,88,0.00,,---,0.00,0.00,VWS V14.01,2013-05-05 10:00:00,
2013-05-05 06:05:00,50.2,46.8,30.06,NNW,346,1.0,6.0,88,0.00,,---,0.00,0.00,VWS V14.01,2013-05-05 10:05:00,
2013-05-05 06:10:00,50.2,46.8,30.06,East,89,1.0,6.0,88,0.00,,---,0.00,0.00,VWS V14.01,2013-05-05 10:10:00,
2013-05-05 06:15:00,50.1,46.7,30.06,North,360,4.0,6.0,88,0.00,,---,0.00,0.00,VWS V14.01,2013-05-05 10:15:00,
2013-05-05 06:20:00,50.1,46.7,30.06,ESE,119,0.0,7.0,88,0.00,,---,0.00,0.00,VWS V14.01,2013-05-05 10:20:00,
2013-05-05 06:25:00,50.0,46.6,30.06,NE,52,2.0,10.0,88,0.00,,---,0.00,0.00,VWS V14.01,2013-05-05 10:25:00,
2013-05-05 06:30:00,50.0,46.6,30.07,East,92,3.0,10.0,88,0.00,,---,0.00,0.00,VWS V14.01,2013-05-05 10:30:00,
2013-05-05 06:35:00,49.9,46.5,30.06,NNE,32,1.0,6.0,88,0.00,,---,0.00,7.00,VWS V14.01,2013-05-05 10:35:00,
2013-05-05 06:40:00,49.9,46.5,30.07,ENE,69,3.0,10.0,88,0.00,,---,0.00,7.00,VWS V14.01,2013-05-05 10:40:00,
2013-05-05 06:45:00,49.9,46.5,30.07,SW,235,2.0,10.0,88,0.00,,---,0.00,19.00,VWS V14.01,2013-05-05 10:45:00,
2013-05-05 06:50:00,49.9,46.8,30.07,NE,49,1.0,10.0,89,0.00,,---,0.00,16.00,VWS V14.01,2013-05-05 10:50:00,
2013-05-05 06:55:00,49.8,46.7,30.07,North,5,0.0,10.0,89,0.00,,---,0.00,16.00,VWS V14.01,2013-05-05 10:55:00,
2013-05-05 07:00:00,49.8,46.7,30.07,North,5,7.0,10.0,89,0.00,,---,0.00,19.00,VWS V14.01,2013-05-05 11:00:00,
2013-05-05 07:05:00,49.8,46.7,30.07,ENE,57,5.0,7.0,89,0.00,,---,0.00,19.00,VWS V14.01,2013-05-05 11:05:00,
2013-05-05 07:10:00,49.7,46.6,30.07,North,355,5.0,10.0,89,0.00,,---,0.00,26.00,VWS V14.01,2013-05-05 11:10:00,
2013-05-05 07:15:00,49.7,46.6,30.08,North,350,0.0,10.0,89,0.00,,---,0.00,23.00,VWS V14.01,2013-05-05 11:15:00,
2013-05-05 07:20:00,49.7,46.6,30.08,ESE,117,1.0,10.0,89,0.00,,---,0.00,25.00,VWS V14.01,2013-05-05 11:20:00,
2013-05-05 07:25:00,49.6,46.5,30.09,SSE,167,1.0,10.0,89,0.00,,---,0.00,25.00,VWS V14.01,2013-05-05 11:25:00,
2013-05-05 07:30:00,49.6,46.5,30.09,East,80,4.0,10.0,89,0.00,,---,0.00,28.00,VWS V14.01,2013-05-05 11:30:00,
2013-05-05 07:35:00,49.6,46.5,30.09,ENE,78,1.0,5.0,89,0.00,,---,0.00,28.00,VWS V14.01,2013-05-05 11:35:00,
2013-05-05 07:40:00,49.5,46.4,30.09,East,85,5.0,9.0,89,0.00,,---,0.00,25.00,VWS V14.01,2013-05-05 11:40:00,
2013-05-05 07:45:00,49.5,46.4,30.08,East,86,5.0,9.0,89,0.00,,---,0.00,30.00,VWS V14.01,2013-05-05 11:45:00,
2013-05-05 07:50:00,49.4,46.3,30.08,ESE,113,5.0,9.0,89,0.00,,---,0.00,35.00,VWS V14.01,2013-05-05 11:50:00,
2013-05-05 07:55:00,49.3,46.2,30.09,East,98,2.0,9.0,89,0.00,,---,0.00,42.00,VWS V14.01,2013-05-05 11:55:00,
2013-05-05 08:00:00,49.3,46.2,30.08,East,93,5.0,10.0,89,0.00,,---,0.00,56.00,VWS V14.01,2013-05-05 12:00:00,
2013-05-05 08:05:00,49.2,46.4,30.08,ENE,67,5.0,6.0,90,0.00,,---,0.00,60.00,VWS V14.01,2013-05-05 12:05:00,
2013-05-05 08:10:00,49.2,46.4,30.08,SE,135,4.0,8.0,90,0.00,,---,0.00,63.00,VWS V14.01,2013-05-05 12:10:00,
2013-05-05 08:15:00,49.2,46.4,30.08,East,81,1.0,9.0,90,0.00,,---,0.00,72.00,VWS V14.01,2013-05-05 12:15:00,
2013-05-05 08:20:00,49.2,46.4,30.08,SE,127,4.0,9.0,90,0.00,,---,0.00,53.00,VWS V14.01,2013-05-05 12:20:00,
2013-05-05 08:25:00,49.1,46.3,30.08,NNE,28,0.0,9.0,90,0.00,,---,0.00,49.00,VWS V14.01,2013-05-05 12:25:00,
2013-05-05 08:30:00,49.2,46.4,30.08,North,10,2.0,9.0,90,0.00,,---,0.00,62.00,VWS V14.01,2013-05-05 12:30:00,
2013-05-05 08:35:00,49.2,46.4,30.08,NE,37,1.0,12.0,90,0.00,,---,0.00,72.00,VWS V14.01,2013-05-05 12:35:00,
2013-05-05 08:40:00,49.1,46.3,30.08,North,5,7.0,12.0,90,0.00,,---,0.00,84.00,VWS V14.01,2013-05-05 12:40:00,
2013-05-05 08:45:00,49.2,46.7,30.09,NNE,26,4.0,12.0,91,0.00,,---,0.00,62.00,VWS V14.01,2013-05-05 12:45:00,
2013-05-05 08:50:00,49.2,46.4,30.09,SE,144,1.0,12.0,90,0.00,,---,0.00,62.00,VWS V14.01,2013-05-05 12:50:00,
2013-05-05 08:55:00,49.3,46.8,30.09,NE,40,5.0,12.0,91,0.00,,---,0.00,69.00,VWS V14.01,2013-05-05 12:55:00,
2013-05-05 09:00:00,49.3,46.8,30.09,East,92,6.0,12.0,91,0.00,,---,0.00,62.00,VWS V14.01,2013-05-05 13:00:00,
2013-05-05 09:05:00,49.4,46.9,30.09,ENE,77,1.0,8.0,91,0.00,,---,0.00,63.00,VWS V14.01,2013-05-05 13:05:00,
2013-05-05 09:10:00,49.4,46.6,30.09,ESE,111,0.0,8.0,90,0.00,,---,0.00,76.00,VWS V14.01,2013-05-05 13:10:00,
2013-05-05 09:15:00,49.4,46.6,30.09,ENE,73,2.0,9.0,90,0.00,,---,0.00,70.00,VWS V14.01,2013-05-05 13:15:00,
2013-05-05 09:20:00,49.5,46.7,30.09,East,91,4.0,9.0,90,0.00,,---,0.00,84.00,VWS V14.01,2013-05-05 13:20:00,
2013-05-05 09:25:00,49.6,46.8,30.09,South,186,3.0,9.0,90,0.00,,---,0.00,70.00,VWS V14.01,2013-05-05 13:25:00,
2013-05-05 09:30:00,49.6,46.8,30.09,North,355,8.0,10.0,90,0.00,,---,0.00,62.00,VWS V14.01,2013-05-05 13:30:00,
2013-05-05 09:35:00,49.8,47.0,30.09,NNW,346,5.0,6.0,90,0.00,,---,0.00,72.00,VWS V14.01,2013-05-05 13:35:00,
2013-05-05 09:40:00,49.8,47.0,30.09,North,10,2.0,7.0,90,0.00,,---,0.00,109.00,VWS V14.01,2013-05-05 13:40:00,
2013-05-05 09:45:00,49.8,47.3,30.09,East,86,3.0,7.0,91,0.00,,---,0.00,90.00,VWS V14.01,2013-05-05 13:45:00,
2013-05-05 09:50:00,49.9,47.4,30.08,NNE,23,5.0,7.0,91,0.00,,---,0.00,109.00,VWS V14.01,2013-05-05 13:50:00,
2013-05-05 09:55:00,50.0,47.5,30.08,North,9,2.0,7.0,91,0.00,,---,0.00,146.00,VWS V14.01,2013-05-05 13:55:00,
2013-05-05 10:00:00,50.2,47.4,30.08,NE,53,0.0,10.0,90,0.00,,---,0.00,142.00,VWS V14.01,2013-05-05 14:00:00,
2013-05-05 10:05:00,50.3,47.5,30.08,East,84,0.0,8.0,90,0.00,,---,0.00,144.00,VWS V14.01,2013-05-05 14:05:00,
2013-05-05 10:10:00,50.5,47.7,30.08,North,355,0.0,8.0,90,0.00,,---,0.00,179.00,VWS V14.01,2013-05-05 14:10:00,
2013-05-05 10:15:00,50.7,47.9,30.08,ENE,69,3.0,8.0,90,0.00,,---,0.00,162.00,VWS V14.01,2013-05-05 14:15:00,
2013-05-05 10:20:00,50.9,48.1,30.08,NNE,16,5.0,8.0,90,0.00,,---,0.00,185.00,VWS V14.01,2013-05-05 14:20:00,
2013-05-05 10:25:00,51.1,48.3,30.08,NE,40,3.0,10.0,90,0.00,,---,0.00,181.00,VWS V14.01,2013-05-05 14:25:00,
2013-05-05 10:30:00,51.3,48.2,30.08,NE,54,3.0,10.0,89,0.00,,---,0.00,237.00,VWS V14.01,2013-05-05 14:30:00,
2013-05-05 10:35:00,51.5,48.7,30.08,East,90,5.0,6.0,90,0.00,,---,0.00,186.00,VWS V14.01,2013-05-05 14:35:00,
2013-05-05 10:40:00,51.7,48.6,30.08,East,86,6.0,8.0,89,0.00,,---,0.00,206.00,VWS V14.01,2013-05-05 14:40:00,
2013-05-05 10:45:00,51.9,48.8,30.07,NNE,13,3.0,10.0,89,0.00,,---,0.00,214.00,VWS V14.01,2013-05-05 14:45:00,
2013-05-05 10:50:00,52.2,49.1,30.07,SE,126,3.0,10.0,89,0.00,,---,0.00,199.00,VWS V14.01,2013-05-05 14:50:00,
2013-05-05 10:55:00,52.4,49.0,30.07,East,101,2.0,10.0,88,0.00,,---,0.00,193.00,VWS V14.01,2013-05-05 14:55:00,
2013-05-05 11:00:00,52.6,49.2,30.07,NW,325,3.0,10.0,88,0.00,,---,0.00,213.00,VWS V14.01,2013-05-05 15:00:00,
2013-05-05 11:05:00,52.8,49.3,30.07,East,82,1.0,5.0,88,0.00,,---,0.00,213.00,VWS V14.01,2013-05-05 15:05:00,
2013-05-05 11:10:00,53.0,49.5,30.08,ESE,113,1.0,8.0,88,0.00,,---,0.00,221.00,VWS V14.01,2013-05-05 15:10:00,
2013-05-05 11:15:00,53.2,49.4,30.08,East,88,2.0,8.0,87,0.00,,---,0.00,204.00,VWS V14.01,2013-05-05 15:15:00,
2013-05-05 11:20:00,53.3,49.5,30.08,East,90,3.0,9.0,87,0.00,,---,0.00,146.00,VWS V14.01,2013-05-05 15:20:00,
2013-05-05 11:25:00,53.4,49.6,30.08,East,92,0.0,9.0,87,0.00,,---,0.00,148.00,VWS V14.01,2013-05-05 15:25:00,
2013-05-05 11:30:00,53.6,49.8,30.08,ENE,63,2.0,9.0,87,0.00,,---,0.00,149.00,VWS V14.01,2013-05-05 15:30:00,
2013-05-05 11:35:00,53.6,49.8,30.08,NNE,26,1.0,7.0,87,0.00,,---,0.00,179.00,VWS V14.01,2013-05-05 15:35:00,
2013-05-05 11:40:00,53.7,49.9,30.08,ENE,67,2.0,7.0,87,0.00,,---,0.00,118.00,VWS V14.01,2013-05-05 15:40:00,
2013-05-05 11:45:00,53.7,49.9,30.08,ENE,60,2.0,7.0,87,0.00,,---,0.00,139.00,VWS V14.01,2013-05-05 15:45:00,
2013-05-05 11:50:00,53.8,50.0,30.08,North,5,4.0,7.0,87,0.00,,---,0.00,149.00,VWS V14.01,2013-05-05 15:50:00,
2013-05-05 11:55:00,53.8,50.0,30.08,ENE,59,2.0,12.0,87,0.00,,---,0.00,183.00,VWS V14.01,2013-05-05 15:55:00,
2013-05-05 12:00:00,53.9,50.1,30.08,NNW,344,4.0,12.0,87,0.00,,---,0.00,167.00,VWS V14.01,2013-05-05 16:00:00,
2013-05-05 12:05:00,53.9,50.1,30.08,East,101,5.0,7.0,87,0.00,,---,0.00,169.00,VWS V14.01,2013-05-05 16:05:00,
2013-05-05 12:10:00,54.1,50.3,30.07,East,86,3.0,7.0,87,0.00,,---,0.00,195.00,VWS V14.01,2013-05-05 16:10:00,
2013-05-05 12:15:00,54.2,50.4,30.07,East,79,4.0,9.0,87,0.00,,---,0.00,167.00,VWS V14.01,2013-05-05 16:15:00,
2013-05-05 12:20:00,54.2,50.4,30.07,ENE,74,0.0,9.0,87,0.00,,---,0.00,204.00,VWS V14.01,2013-05-05 16:20:00,
2013-05-05 12:25:00,54.3,50.5,30.07,East,101,1.0,9.0,87,0.00,,---,0.00,174.00,VWS V14.01,2013-05-05 16:25:00,
2013-05-05 12:30:00,54.5,50.7,30.07,NNE,32,2.0,9.0,87,0.00,,---,0.00,160.00,VWS V14.01,2013-05-05 16:30:00,
2013-05-05 12:35:00,54.5,50.7,30.07,East,87,1.0,5.0,87,0.00,,---,0.00,156.00,VWS V14.01,2013-05-05 16:35:00,
2013-05-05 12:40:00,54.6,50.8,30.07,North,360,0.0,5.0,87,0.00,,---,0.00,130.00,VWS V14.01,2013-05-05 16:40:00,
2013-05-05 12:45:00,54.7,50.9,30.07,ESE,113,2.0,8.0,87,0.00,,---,0.00,151.00,VWS V14.01,2013-05-05 16:45:00,
2013-05-05 12:50:00,54.8,51.0,30.07,East,89,6.0,8.0,87,0.00,,---,0.00,176.00,VWS V14.01,2013-05-05 16:50:00,
2013-05-05 12:55:00,54.9,51.1,30.07,ENE,76,1.0,8.0,87,0.00,,---,0.00,165.00,VWS V14.01,2013-05-05 16:55:00,
2013-05-05 13:00:00,55.0,50.9,30.06,NE,51,8.0,9.0,86,0.00,,---,0.00,174.00,VWS V14.01,2013-05-05 17:00:00,
2013-05-05 13:05:00,55.1,51.0,30.06,SSE,157,4.0,10.0,86,0.00,,---,0.00,248.00,VWS V14.01,2013-05-05 17:05:00,
2013-05-05 13:10:00,55.3,51.5,30.06,ENE,64,2.0,10.0,87,0.00,,---,0.00,248.00,VWS V14.01,2013-05-05 17:10:00,
2013-05-05 13:15:00,55.5,51.7,30.06,East,91,1.0,10.0,87,0.00,,---,0.00,239.00,VWS V14.01,2013-05-05 17:15:00,
2013-05-05 13:20:00,55.7,51.6,30.06,NE,36,4.0,10.0,86,0.00,,---,0.00,236.00,VWS V14.01,2013-05-05 17:20:00,
2013-05-05 13:25:00,55.8,51.4,30.06,ENE,69,2.0,10.0,85,0.00,,---,0.00,220.00,VWS V14.01,2013-05-05 17:25:00,
2013-05-05 13:30:00,55.9,51.8,30.05,ESE,113,4.0,10.0,86,0.00,,---,0.00,290.00,VWS V14.01,2013-05-05 17:30:00,
2013-05-05 13:35:00,56.2,52.1,30.05,East,94,0.0,8.0,86,0.00,,---,0.00,262.00,VWS V14.01,2013-05-05 17:35:00,
2013-05-05 13:40:00,56.5,52.4,30.06,East,88,2.0,8.0,86,0.00,,---,0.00,221.00,VWS V14.01,2013-05-05 17:40:00,
2013-05-05 13:45:00,56.6,51.8,30.05,East,90,4.0,8.0,84,0.00,,---,0.00,236.00,VWS V14.01,2013-05-05 17:45:00,
2013-05-05 13:50:00,56.6,52.2,30.05,ENE,65,5.0,9.0,85,0.00,,---,0.00,271.00,VWS V14.01,2013-05-05 17:50:00,
2013-05-05 13:55:00,56.7,52.2,30.05,NE,54,2.0,9.0,85,0.00,,---,0.00,302.00,VWS V14.01,2013-05-05 17:55:00,
2013-05-05 14:00:00,56.9,52.4,30.05,NE,49,4.0,9.0,85,0.00,,---,0.00,251.00,VWS V14.01,2013-05-05 18:00:00,
2013-05-05 14:05:00,57.1,52.6,30.05,NNE,16,4.0,4.0,85,0.00,,---,0.00,223.00,VWS V14.01,2013-05-05 18:05:00,
2013-05-05 14:10:00,57.3,52.8,30.05,East,83,4.0,11.0,85,0.00,,---,0.00,227.00,VWS V14.01,2013-05-05 18:10:00,
2013-05-05 14:15:00,57.4,52.9,30.05,East,96,0.0,11.0,85,0.00,,---,0.00,199.00,VWS V14.01,2013-05-05 18:15:00,
2013-05-05 14:20:00,57.4,52.9,30.05,ESE,114,1.0,13.0,85,0.00,,---,0.00,171.00,VWS V14.01,2013-05-05 18:20:00,
2013-05-05 14:25:00,57.3,52.8,30.05,NE,56,6.0,13.0,85,0.00,,---,0.00,162.00,VWS V14.01,2013-05-05 18:25:00,
2013-05-05 14:30:00,57.2,52.7,30.05,ENE,73,1.0,13.0,85,0.00,,---,0.00,137.00,VWS V14.01,2013-05-05 18:30:00,
2013-05-05 14:35:00,57.2,52.7,30.05,SSE,161,3.0,8.0,85,0.00,,---,0.00,153.00,VWS V14.01,2013-05-05 18:35:00,
2013-05-05 14:40:00,57.2,53.1,30.05,East,88,2.0,8.0,86,0.00,,---,0.00,183.00,VWS V14.01,2013-05-05 18:40:00,
2013-05-05 14:45:00,57.3,53.2,30.04,SSE,147,5.0,10.0,86,0.00,,---,0.00,151.00,VWS V14.01,2013-05-05 18:45:00,
2013-05-05 14:50:00,57.4,53.2,30.04,North,351,1.0,10.0,86,0.00,,---,0.00,148.00,VWS V14.01,2013-05-05 18:50:00,
2013-05-05 14:55:00,57.5,53.3,30.04,ESE,103,5.0,10.0,86,0.00,,---,0.00,114.00,VWS V14.01,2013-05-05 18:55:00,
2013-05-05 15:00:00,57.5,53.3,30.04,NW,304,1.0,10.0,86,0.00,,---,0.00,98.00,VWS V14.01,2013-05-05 19:00:00,
2013-05-05 15:05:00,57.5,53.3,30.04,East,86,2.0,8.0,86,0.00,,---,0.00,100.00,VWS V14.01,2013-05-05 19:05:00,
2013-05-05 15:10:00,57.5,53.3,30.04,East,89,0.0,8.0,86,0.00,,---,0.00,98.00,VWS V14.01,2013-05-05 19:10:00,
2013-05-05 15:15:00,57.5,53.7,30.03,NE,44,1.0,8.0,87,0.00,,---,0.00,111.00,VWS V14.01,2013-05-05 19:15:00,
2013-05-05 15:20:00,57.6,53.8,30.03,NNE,32,1.0,9.0,87,0.00,,---,0.00,118.00,VWS V14.01,2013-05-05 19:20:00,
2013-05-05 15:25:00,57.7,53.9,30.03,East,92,4.0,9.0,87,0.00,,---,0.00,118.00,VWS V14.01,2013-05-05 19:25:00,
2013-05-05 15:30:00,57.8,54.0,30.03,WNW,300,0.0,9.0,87,0.00,,---,0.00,167.00,VWS V14.01,2013-05-05 19:30:00,
2013-05-05 15:35:00,57.9,54.1,30.03,East,99,1.0,2.0,87,0.00,,---,0.00,118.00,VWS V14.01,2013-05-05 19:35:00,
2013-05-05 15:40:00,58.1,54.3,30.03,NNE,24,5.0,7.0,87,0.00,,---,0.00,93.00,VWS V14.01,2013-05-05 19:40:00,
2013-05-05 15:45:00,58.2,54.4,30.02,East,88,3.0,12.0,87,0.00,,---,0.00,95.00,VWS V14.01,2013-05-05 19:45:00,
2013-05-05 15:50:00,58.2,54.4,30.02,ESE,119,0.0,12.0,87,0.00,,---,0.00,86.00,VWS V14.01,2013-05-05 19:50:00,
2013-05-05 15:55:00,58.3,54.5,30.02,ENE,71,1.0,12.0,87,0.00,,---,0.00,84.00,VWS V14.01,2013-05-05 19:55:00,
2013-05-05 16:00:00,58.4,54.5,30.02,ESE,113,4.0,12.0,87,0.00,,---,0.00,95.00,VWS V14.01,2013-05-05 20:00:00,
2013-05-05 16:05:00,58.4,54.5,30.02,East,83,5.0,6.0,87,0.00,,---,0.00,98.00,VWS V14.01,2013-05-05 20:05:00,
2013-05-05 16:10:00,58.5,54.3,30.01,NNE,30,7.0,11.0,86,0.00,,---,0.00,97.00,VWS V14.01,2013-05-05 20:10:00,
2013-05-05 16:15:00,58.6,54.4,30.01,ENE,59,5.0,11.0,86,0.00,,---,0.00,97.00,VWS V14.01,2013-05-05 20:15:00,
2013-05-05 16:20:00,58.6,54.8,30.01,ENE,70,1.0,11.0,87,0.00,,---,0.00,111.00,VWS V14.01,2013-05-05 20:20:00,
2013-05-05 16:25:00,58.7,54.5,30.01,ENE,62,1.0,11.0,86,0.00,,---,0.00,98.00,VWS V14.01,2013-05-05 20:25:00,
2013-05-05 16:30:00,58.8,54.6,30.01,NNE,21,9.0,11.0,86,0.00,,---,0.00,97.00,VWS V14.01,2013-05-05 20:30:00,
2013-05-05 16:35:00,58.9,54.7,30.01,SE,124,4.0,6.0,86,0.00,,---,0.00,77.00,VWS V14.01,2013-05-05 20:35:00,
2013-05-05 16:40:00,59.0,55.1,30.01,ENE,71,5.0,7.0,87,0.00,,---,0.00,84.00,VWS V14.01,2013-05-05 20:40:00,
2013-05-05 16:45:00,59.0,54.8,30.01,NNW,335,4.0,7.0,86,0.00,,---,0.00,74.00,VWS V14.01,2013-05-05 20:45:00,
2013-05-05 16:50:00,59.1,54.9,30.00,ESE,123,4.0,10.0,86,0.00,,---,0.00,81.00,VWS V14.01,2013-05-05 20:50:00,
2013-05-05 16:55:00,59.1,54.9,30.01,ENE,61,4.0,10.0,86,0.00,,---,0.00,77.00,VWS V14.01,2013-05-05 20:55:00,
2013-05-05 17:00:00,59.2,55.0,30.01,ESE,123,2.0,10.0,86,0.00,,---,0.00,90.00,VWS V14.01,2013-05-05 21:00:00,
2013-05-05 17:05:00,59.3,55.1,30.00,ESE,105,6.0,7.0,86,0.00,,---,0.00,105.00,VWS V14.01,2013-05-05 21:05:00,
2013-05-05 17:10:00,59.4,55.2,30.00,NNE,17,1.0,8.0,86,0.00,,---,0.00,70.00,VWS V14.01,2013-05-05 21:10:00,
2013-05-05 17:15:00,59.5,55.3,30.00,East,80,2.0,10.0,86,0.00,,---,0.00,56.00,VWS V14.01,2013-05-05 21:15:00,
2013-05-05 17:20:00,59.5,55.3,30.00,ENE,62,5.0,10.0,86,0.00,,---,0.00,47.00,VWS V14.01,2013-05-05 21:20:00,
2013-05-05 17:25:00,59.4,55.2,30.00,East,101,2.0,10.0,86,0.00,,---,0.00,33.00,VWS V14.01,2013-05-05 21:25:00,
2013-05-05 17:30:00,59.3,55.1,30.01,East,98,6.0,10.0,86,0.00,,---,0.00,30.00,VWS V14.01,2013-05-05 21:30:00,
2013-05-05 17:35:00,59.2,55.3,30.00,East,89,5.0,10.0,87,0.00,,---,0.00,33.00,VWS V14.01,2013-05-05 21:35:00,
2013-05-05 17:40:00,59.1,55.2,30.00,East,97,4.0,10.0,87,0.00,,---,0.00,26.00,VWS V14.01,2013-05-05 21:40:00,
2013-05-05 17:45:00,59.0,55.1,30.00,East,84,1.0,10.0,87,0.00,,---,0.00,26.00,VWS V14.01,2013-05-05 21:45:00,
2013-05-05 17:50:00,58.8,55.3,30.00,ENE,63,0.0,10.0,88,0.00,,---,0.00,30.00,VWS V14.01,2013-05-05 21:50:00,
2013-05-05 17:55:00,58.7,55.5,30.00,NNE,24,0.0,12.0,89,0.00,,---,0.00,37.00,VWS V14.01,2013-05-05 21:55:00,
2013-05-05 18:00:00,58.5,55.3,30.00,ESE,121,1.0,12.0,89,0.00,,---,0.00,21.00,VWS V14.01,2013-05-05 22:00:00,
2013-05-05 18:05:00,58.4,55.5,30.00,East,82,2.0,6.0,90,0.00,,---,0.00,23.00,VWS V14.01,2013-05-05 22:05:00,
2013-05-05 18:10:00,58.2,55.3,30.00,East,80,0.0,8.0,90,0.00,,---,0.00,19.00,VWS V14.01,2013-05-05 22:10:00,
2013-05-05 18:15:00,58.2,55.3,30.00,East,82,1.0,8.0,90,0.00,,---,0.00,23.00,VWS V14.01,2013-05-05 22:15:00,
2013-05-05 18:20:00,58.1,55.5,30.00,ENE,58,1.0,8.0,91,0.00,,---,0.00,25.00,VWS V14.01,2013-05-05 22:20:00,
2013-05-05 18:25:00,58.0,55.4,30.00,NE,53,1.0,8.0,91,0.00,,---,0.00,19.00,VWS V14.01,2013-05-05 22:25:00,
2013-05-05 18:30:00,58.0,55.4,30.00,SE,124,1.0,8.0,91,0.00,,---,0.00,12.00,VWS V14.01,2013-05-05 22:30:00,
2013-05-05 18:35:00,58.0,55.4,30.00,East,83,5.0,6.0,91,0.00,,---,0.00,12.00,VWS V14.01,2013-05-05 22:35:00,
2013-05-05 18:40:00,58.0,55.4,30.00,East,79,0.0,8.0,91,0.00,,---,0.00,19.00,VWS V14.01,2013-05-05 22:40:00,
2013-05-05 18:45:00,58.0,55.4,30.00,NE,43,4.0,8.0,91,0.00,,---,0.00,16.00,VWS V14.01,2013-05-05 22:45:00,
2013-05-05 18:50:00,57.9,55.3,29.99,NE,51,6.0,8.0,91,0.00,,---,0.00,25.00,VWS V14.01,2013-05-05 22:50:00,
2013-05-05 18:55:00,57.9,55.3,29.99,ESE,119,1.0,8.0,91,0.00,,---,0.00,21.00,VWS V14.01,2013-05-05 22:55:00,
2013-05-05 19:00:00,57.9,55.3,29.99,NE,49,4.0,8.0,91,0.00,,---,0.00,21.00,VWS V14.01,2013-05-05 23:00:00,
2013-05-05 19:05:00,57.9,55.3,29.99,North,5,5.0,7.0,91,0.00,,---,0.00,19.00,VWS V14.01,2013-05-05 23:05:00,
2013-05-05 19:09:00,57.8,55.2,29.99,East,91,3.0,7.0,91,0.00,,---,0.00,14.00,VWS V14.01,2013-05-05 23:09:00,
2013-05-05 19:14:00,57.8,55.2,29.99,North,355,3.0,7.0,91,0.00,,---,0.00,11.00,VWS V14.01,2013-05-05 23:14:00,
2013-05-05 19:19:00,57.7,55.1,29.99,North,355,0.0,7.0,91,0.00,,---,0.00,12.00,VWS V14.01,2013-05-05 23:19:00,
2013-05-05 19:24:00,57.7,55.4,29.99,East,95,0.0,7.0,92,0.00,,---,0.00,12.00,VWS V14.01,2013-05-05 23:24:00,
2013-05-05 19:29:00,57.6,55.3,29.99,East,98,1.0,7.0,92,0.00,,---,0.00,9.00,VWS V14.01,2013-05-05 23:29:00,
2013-05-05 19:35:00,57.6,55.3,29.99,NE,55,0.0,5.0,92,0.00,,---,0.00,9.00,VWS V14.01,2013-05-05 23:35:00,
2013-05-05 19:39:00,57.6,55.3,29.99,East,81,0.0,6.0,92,0.00,,---,0.00,7.00,VWS V14.01,2013-05-05 23:39:00,
2013-05-05 19:44:00,57.6,55.3,29.99,ESE,107,2.0,6.0,92,0.00,,---,0.00,7.00,VWS V14.01,2013-05-05 23:44:00,
2013-05-05 19:49:00,57.6,55.0,29.99,East,98,5.0,8.0,91,0.00,,---,0.00,7.00,VWS V14.01,2013-05-05 23:49:00,
2013-05-05 19:54:00,57.6,55.0,29.99,NE,51,2.0,8.0,91,0.00,,---,0.00,7.00,VWS V14.01,2013-05-05 23:54:00,
2013-05-05 19:59:00,57.6,55.0,29.99,ENE,67,1.0,8.0,91,0.00,,---,0.00,5.00,VWS V14.01,2013-05-05 23:59:00,
2013-05-05 20:05:00,57.7,55.1,29.99,North,349,3.0,6.0,91,0.00,,---,0.00,0.00,VWS V14.01,2013-05-06 00:05:00,
2013-05-05 20:09:00,57.7,54.8,29.99,East,82,1.0,6.0,90,0.00,,---,0.00,0.00,VWS V14.01,2013-05-06 00:09:00,
2013-05-05 20:14:00,57.8,54.9,29.99,ESE,107,1.0,9.0,90,0.00,,---,0.00,0.00,VWS V14.01,2013-05-06 00:14:00,
2013-05-05 20:19:00,57.8,54.9,29.99,East,97,4.0,9.0,90,0.00,,---,0.00,0.00,VWS V14.01,2013-05-06 00:19:00,
2013-05-05 20:24:00,57.8,54.9,29.99,East,82,5.0,9.0,90,0.00,,---,0.00,0.00,VWS V14.01,2013-05-06 00:24:00,
2013-05-05 20:29:00,57.8,54.9,29.99,ENE,67,6.0,9.0,90,0.00,,---,0.00,0.00,VWS V14.01,2013-05-06 00:29:00,
2013-05-05 20:34:00,57.8,54.9,29.99,East,95,0.0,9.0,90,0.00,,---,0.00,0.00,VWS V14.01,2013-05-06 00:34:00,
2013-05-05 20:39:00,57.8,54.9,29.99,ENE,73,0.0,9.0,90,0.00,,---,0.00,0.00,VWS V14.01,2013-05-06 00:39:00,
2013-05-05 20:44:00,57.9,55.0,30.00,NE,53,1.0,9.0,90,0.00,,---,0.00,0.00,VWS V14.01,2013-05-06 00:44:00,
2013-05-05 20:49:00,57.9,54.7,30.00,ENE,69,8.0,9.0,89,0.00,,---,0.00,0.00,VWS V14.01,2013-05-06 00:49:00,
2013-05-05 20:54:00,57.9,54.7,30.00,East,101,4.0,9.0,89,0.00,,---,0.00,0.00,VWS V14.01,2013-05-06 00:54:00,
2013-05-05 20:59:00,57.9,54.7,30.00,North,5,0.0,9.0,89,0.00,,---,0.00,0.00,VWS V14.01,2013-05-06 00:59:00,
2013-05-05 21:04:00,58.0,54.8,30.00,East,79,2.0,7.0,89,0.00,,---,0.00,0.00,VWS V14.01,2013-05-06 01:04:00,
2013-05-05 21:09:00,58.0,54.8,30.00,East,89,7.0,9.0,89,0.00,,---,0.00,0.00,VWS V14.01,2013-05-06 01:09:00,
2013-05-05 21:14:00,58.0,54.5,30.00,ESE,109,1.0,9.0,88,0.00,,---,0.00,0.00,VWS V14.01,2013-05-06 01:14:00,
2013-05-05 21:19:00,58.1,54.6,30.00,East,90,3.0,10.0,88,0.00,,---,0.00,0.00,VWS V14.01,2013-05-06 01:19:00,
2013-05-05 21:24:00,58.1,54.6,30.00,NNW,344,0.0,10.0,88,0.00,,---,0.00,0.00,VWS V14.01,2013-05-06 01:24:00,
2013-05-05 21:29:00,58.1,54.6,30.00,East,85,4.0,10.0,88,0.00,,---,0.00,0.00,VWS V14.01,2013-05-06 01:29:00,
2013-05-05 21:34:00,58.0,54.5,30.00,SE,128,1.0,5.0,88,0.00,,---,0.00,0.00,VWS V14.01,2013-05-06 01:34:00,
2013-05-05 21:39:00,58.0,54.5,30.01,NE,40,1.0,6.0,88,0.00,,---,0.00,0.00,VWS V14.01,2013-05-06 01:39:00,
2013-05-05 21:44:00,58.0,54.5,30.00,NE,49,0.0,8.0,88,0.00,,---,0.00,0.00,VWS V14.01,2013-05-06 01:44:00,
2013-05-05 21:49:00,58.0,54.5,30.01,East,101,2.0,8.0,88,0.00,,---,0.00,0.00,VWS V14.01,2013-05-06 01:49:00,
2013-05-05 21:54:00,58.0,54.5,30.01,ENE,57,7.0,9.0,88,0.00,,---,0.00,0.00,VWS V14.01,2013-05-06 01:54:00,
2013-05-05 21:59:00,58.0,54.5,30.01,East,96,4.0,9.0,88,0.00,,---,0.00,0.00,VWS V14.01,2013-05-06 01:59:00,
2013-05-05 22:04:00,57.9,54.4,30.01,ENE,72,2.0,9.0,88,0.00,,---,0.00,0.00,VWS V14.01,2013-05-06 02:04:00,
2013-05-05 22:09:00,57.9,54.4,30.01,ENE,78,4.0,9.0,88,0.00,,---,0.00,0.00,VWS V14.01,2013-05-06 02:09:00,
2013-05-05 22:14:00,57.8,54.6,30.02,ENE,60,2.0,9.0,89,0.00,,---,0.00,0.00,VWS V14.01,2013-05-06 02:14:00,
2013-05-05 22:19:00,57.8,54.6,30.01,ENE,61,2.0,9.0,89,0.00,,---,0.00,0.00,VWS V14.01,2013-05-06 02:19:00,
2013-05-05 22:24:00,57.7,54.5,30.01,East,90,3.0,9.0,89,0.00,,---,0.00,0.00,VWS V14.01,2013-05-06 02:24:00,
2013-05-05 22:29:00,57.6,54.7,30.01,SE,135,1.0,9.0,90,0.00,,---,0.00,0.00,VWS V14.01,2013-05-06 02:29:00,
2013-05-05 22:34:00,57.5,54.6,30.01,ENE,76,5.0,5.0,90,0.00,,---,0.00,0.00,VWS V14.01,2013-05-06 02:34:00,
2013-05-05 22:39:00,57.4,54.5,30.01,NE,46,1.0,7.0,90,0.00,,---,0.00,0.00,VWS V14.01,2013-05-06 02:39:00,
2013-05-05 22:44:00,57.3,54.4,30.01,ENE,57,6.0,7.0,90,0.00,,---,0.00,0.00,VWS V14.01,2013-05-06 02:44:00,
2013-05-05 22:49:00,57.2,54.6,30.01,North,355,4.0,7.0,91,0.00,,---,0.00,0.00,VWS V14.01,2013-05-06 02:49:00,
2013-05-05 22:54:00,57.2,54.6,30.00,ESE,109,1.0,7.0,91,0.00,,---,0.00,0.00,VWS V14.01,2013-05-06 02:54:00,
2013-05-05 22:59:00,57.1,54.5,30.00,East,100,2.0,7.0,91,0.00,,---,0.00,0.00,VWS V14.01,2013-05-06 02:59:00,
2013-05-05 23:04:00,57.0,54.4,30.00,NE,55,1.0,5.0,91,0.00,,---,0.00,0.00,VWS V14.01,2013-05-06 03:04:00,
2013-05-05 23:09:00,56.9,54.3,30.00,East,81,5.0,8.0,91,0.00,,---,0.00,0.00,VWS V14.01,2013-05-06 03:09:00,
2013-05-05 23:14:00,56.9,54.3,30.00,SE,126,0.0,8.0,91,0.00,,---,0.00,0.00,VWS V14.01,2013-05-06 03:14:00,
2013-05-05 23:19:00,56.9,54.6,30.00,East,84,8.0,11.0,92,0.00,,---,0.00,0.00,VWS V14.01,2013-05-06 03:19:00,
2013-05-05 23:24:00,56.8,54.5,30.01,NE,47,0.0,11.0,92,0.00,,---,0.00,0.00,VWS V14.01,2013-05-06 03:24:00,
2013-05-05 23:29:00,56.8,54.5,30.01,ESE,107,1.0,11.0,92,0.00,,---,0.00,0.00,VWS V14.01,2013-05-06 03:29:00,
2013-05-05 23:34:00,56.8,54.5,30.01,NE,54,1.0,6.0,92,0.00,,---,0.00,0.00,VWS V14.01,2013-05-06 03:34:00,
2013-05-05 23:39:00,56.8,54.5,30.01,NE,51,1.0,7.0,92,0.00,,---,0.00,0.00,VWS V14.01,2013-05-06 03:39:00,
2013-05-05 23:44:00,56.8,54.5,30.01,East,90,7.0,9.0,92,0.00,,---,0.00,0.00,VWS V14.01,2013-05-06 03:44:00,
2013-05-05 23:49:00,56.8,54.5,30.01,East,86,1.0,10.0,92,0.00,,---,0.00,0.00,VWS V14.01,2013-05-06 03:49:00,
2013-05-05 23:54:00,56.8,54.5,30.00,SE,136,3.0,10.0,92,0.00,,---,0.00,0.00,VWS V14.01,2013-05-06 03:54:00,
2013-05-05 23:59:00,56.7,54.4,30.00,East,82,0.0,10.0,92,0.00,,---,0.00,0.00,VWS V14.01,2013-05-06 03:59:00,